カタログに戻る

ONEWEB-0132

運用中通信PO
NORAD 47278·PAYLOAD·🇬🇧 United Kingdom

打ち上げ Dec 18, 2020 から Vostochny Cosmodrome

Loading…

次のパス (今後24時間)

TLE

最新Source: CelesTrak SupGP

元期: Sep 14, 2026, 14:05 UTC

1 47278C 20100W   26257.58698333  .00002596  00000+0  72245-2 0  2578
2 47278  87.8989 332.9211 0001964 100.6258   2.1280 13.12443231    10

AllMySatでONEWEB-0132をリアルタイム追跡

Download on the App Store